Probability
0 0 0 0 0 0 0 0 0 0 0 0 0 0 0 0 0 0 0 0 0 0 0 0 0 0 0 0 6 3 3 3 3 0 0 0 0 0 0 0 0 0 0 0
0 0 0 0 0 0 0 0 0 0 0 0 0 0 0 0 0 0 0 0 0 0 0 0 0 0 0 0 3 6 3 3 3 0 0 0 0 0 0 0 0 0 0 0
0 0 0 0 0 0 0 0 0 0 0 0 0 0 0 0 0 0 0 0 0 0 0 0 0 0 0 0 0 3 0 0 0 0 0 0 0 0 0 0 0 0 0 0
0 0 0 0 0 0 0 0 0 0 0 0 0 0 0 0 0 0 0 0 0 0 0 0 0 0 0 0 0 0 0 0 0 0 0 0 0 0 0 0 0 0 0 0
0 0 0 0 0 0 0 0 0 0 0 0 0 0 0 0 0 0 0 0 0 0 0 0 0 0 0 0 0 0 0 0 0 0 0 0 0 0 0 0 0 0 0 0
0 0 0 0 0 0 0 0 0 0 0 0 0 0 0 0 0 0 0 0 0 0 0 0 0 0 0 0 0 0 0 0 0 0 0 0 0 0 0 0 0 0 0 0
0 0 0 0 0 0 0 0 0 0 0 0 0 0 0 0 0 0 0 0 0 0 0 0 0 0 0 0 0 0 0 0 0 0 0 0 0 0 0 0 0 0 0 0
0 0 0 0 0 0 0 0 0 0 0 0 0 0 0 0 0 0 0 0 0 0 0 0 0 0 0 0 0 0 0 0 0 0 0 0 0 0 0 0 0 0 0 0
0 0 0 0 0 0 0 0 0 0 0 0 0 0 0 0 0 0 0 0 0 0 0 0 0 0 0 0 0 0 0 0 0 0 0 0 0 0 0 0 0 0 0 0
0 0 0 0 0 0 0 0 0 0 0 0 0 0 0 0 0 0 0 0 0 0 0 0 0 0 0 0 0 0 0 0 0 0 0 0 0 0 0 0 0 0 0 0
0 0 0 0 0 0 0 0 0 0 0 0 0 0 0 0 0 0 0 0 0 0 0 0 0 0 0 0 0 0 0 0 0 0 0 0 0 0 0 0 0 0 0 0
0 0 0 0 0 0 0 0 0 0 0 0 0 0 0 0 0 0 0 0 0 0 0 0 0 0 0 0 0 0 0 0 0 0 0 0 0 0 0 0 0 0 0 0
0 0 0 0 0 0 0 0 0 0 0 0 0 0 0 0 0 0 0 0 0 0 0 0 0 0 0 0 0 0 0 0 0 0 0 0 0 0 0 0 0 0 0 0
0 0 0 0 0 0 0 0 0 0 0 0 0 0 0 0 0 0 0 0 0 0 0 0 0 0 0 0 0 0 0 0 0 0 0 0 0 0 0 0 0 0 0 0
0 0 0 0 0 0 0 0 0 0 0 0 0 0 0 0 0 0 0 0 0 0 0 0 0 0 0 0 0 0 0 0 0 0 0 0 0 0 0 0 0 0 0 0
0 0 0 0 0 0 0 0 0 0 0 0 0 0 0 0 0 0 0 0 0 0 0 0 0 0 0 0 0 0 0 0 0 0 0 0 0 0 0 0 0 0 0 0
0 0 0 0 0 0 0 0 0 0 0 0 0 0 0 0 0 0 0 0 0 0 0 0 0 0 0 0 0 0 0 0 0 0 0 0 0 0 0 0 0 0 0 0
0 0 0 0 0 0 0 0 0 0 0 0 0 0 0 0 0 0 0 0 0 0 0 0 0 0 0 0 0 0 0 0 0 0 0 0 0 0 0 0 0 0 0 0
0 0 0 0 0 0 0 0 0 0 0 0 0 0 0 0 0 0 0 0 0 0 0 0 0 0 0 0 0 0 0 0 0 0 0 0 0 0 0 0 0 0 0 0
0 0 0 0 0 0 0 0 0 0 0 0 0 0 0 0 0 0 0 0 0 0 0 0 0 0 0 0 0 0 0 0 0 0 0 0 0 0 0 0 0 0 0 0
0 0 0 0 0 0 0 0 0 0 0 0 0 0 0 0 0 0 0 0 0 0 0 0 0 0 0 0 0 0 0 0 0 0 0 0 0 0 0 0 0 0 0 0
0 0 0 0 0 0 0 0 0 0 0 0 0 0 0 0 0 0 0 0 0 0 0 0 0 0 0 0 0 0 0 0 0 0 0 0 0 0 0 0 0 0 0 0
0 0 0 0 0 0 0 0 0 0 0 0 0 0 0 0 0 0 0 0 0 0 0 0 0 0 0 0 0 0 0 0 0 0 0 0 0 0 0 0 0 0 0 0
0 0 0 0 0 0 0 0 0 0 0 0 0 0 0 0 0 0 0 0 0 0 0 0 0 0 0 0 0 0 0 0 0 0 0 0 0 0 0 0 0 0 0 0
0 0 0 0 0 0 0 0 0 0 0 0 0 0 0 0 0 0 0 0 0 0 0 0 0 0 0 0 0 0 0 0 0 0 0 0 0 0 0 0 0 0 0 0
0 0 0 0 0 0 0 0 0 0 0 0 0 0 0 0 0 0 0 0 0 0 0 0 0 0 0 0 0 0 0 0 0 0 0 0 0 0 0 0 0 0 0 0
Height
5670 5671 5671 5672 5672 5673 5673 5673 5674 5675 5676 5676 5677 5679 5680 5681 5683 5685 5686 5688 5690 5692 5694 5696 5698 5700 5702 5704 5706 5709 5712 5714 5716 5719 5721 5723 5724 5726 5728 5730 5731 5733 5735 5736
5664 5664 5665 5664 5664 5664 5665 5666 5667 5667 5668 5668 5669 5670 5671 5672 5674 5676 5678 5679 5681 5683 5684 5686 5688 5690 5691 5694 5696 5698 5701 5704 5706 5708 5710 5712 5714 5716 5718 5719 5721 5723 5724 5726
5658 5659 5657 5657 5657 5657 5657 5658 5659 5659 5659 5659 5660 5662 5664 5664 5665 5667 5669 5670 5672 5674 5675 5676 5678 5680 5682 5683 5685 5687 5690 5693 5695 5697 5699 5701 5703 5705 5707 5709 5711 5712 5714 5716
5650 5651 5650 5650 5650 5649 5650 5651 5650 5650 5650 5651 5652 5652 5656 5656 5657 5658 5659 5660 5662 5664 5665 5666 5667 5669 5671 5673 5674 5676 5679 5681 5683 5685 5687 5689 5692 5694 5696 5698 5700 5701 5703 5704
5644 5644 5643 5643 5643 5642 5642 5642 5642 5642 5642 5642 5642 5642 5646 5647 5648 5649 5650 5651 5652 5653 5655 5656 5657 5658 5660 5661 5663 5664 5666 5668 5671 5673 5675 5678 5680 5682 5685 5686 5688 5690 5691 5693
5637 5637 5636 5636 5635 5635 5634 5634 5633 5633 5633 5633 5634 5633 5635 5638 5639 5640 5641 5641 5642 5643 5644 5645 5646 5647 5648 5649 5650 5652 5654 5656 5659 5661 5663 5665 5667 5670 5672 5674 5675 5677 5679 5681
5630 5630 5629 5628 5627 5627 5626 5626 5625 5623 5623 5624 5625 5624 5626 5629 5630 5630 5631 5631 5632 5633 5634 5635 5635 5636 5637 5637 5638 5640 5642 5644 5647 5649 5651 5653 5655 5657 5659 5662 5663 5665 5666 5668
5623 5623 5622 5620 5620 5619 5618 5618 5618 5616 5615 5615 5615 5615 5618 5619 5620 5620 5621 5621 5622 5622 5623 5623 5624 5625 5625 5626 5627 5628 5630 5632 5634 5636 5638 5640 5642 5644 5647 5649 5650 5652 5654 5655
5616 5616 5614 5613 5612 5611 5610 5609 5610 5608 5606 5605 5605 5607 5609 5610 5610 5610 5611 5611 5612 5612 5612 5612 5613 5613 5614 5614 5615 5616 5618 5619 5621 5624 5626 5628 5630 5631 5633 5635 5636 5638 5640 5642
5608 5608 5607 5605 5604 5603 5603 5602 5601 5599 5597 5596 5597 5599 5601 5600 5601 5601 5602 5601 5601 5602 5601 5601 5601 5601 5602 5602 5603 5604 5605 5607 5609 5611 5612 5614 5616 5618 5620 5621 5623 5625 5626 5628
5601 5600 5599 5598 5596 5595 5595 5594 5592 5591 5590 5589 5588 5593 5593 5592 5591 5591 5591 5591 5591 5591 5590 5590 5590 5590 5590 5590 5590 5591 5593 5594 5596 5597 5599 5601 5603 5604 5606 5607 5609 5611 5612 5614
5593 5592 5591 5591 5589 5587 5586 5586 5585 5584 5583 5581 5580 5585 5584 5583 5581 5580 5580 5579 5579 5579 5579 5578 5578 5577 5577 5578 5578 5579 5580 5582 5583 5584 5586 5587 5589 5590 5591 5593 5594 5596 5598 5600
5586 5585 5583 5582 5583 5581 5579 5578 5577 5576 5574 5572 5572 5577 5574 5573 5572 5571 5570 5569 5568 5568 5567 5566 5566 5565 5565 5566 5566 5567 5568 5570 5571 5572 5573 5574 5575 5576 5578 5579 5580 5581 5583 5585
5578 5577 5577 5576 5574 5572 5571 5570 5569 5567 5565 5564 5564 5566 5566 5564 5562 5561 5560 5558 5557 5557 5556 5555 5554 5554 5553 5554 5554 5555 5556 5557 5558 5559 5560 5561 5562 5563 5564 5565 5566 5568 5569 5571
5570 5569 5568 5567 5565 5563 5562 5562 5560 5558 5557 5556 5556 5556 5556 5554 5552 5551 5550 5548 5547 5546 5545 5544 5543 5542 5542 5542 5543 5543 5544 5545 5546 5547 5548 5549 5549 5550 5551 5552 5553 5554 5555 5557
5561 5560 5559 5558 5557 5554 5553 5554 5552 5550 5549 5547 5546 5547 5547 5544 5542 5541 5540 5538 5537 5536 5534 5533 5532 5531 5531 5531 5531 5531 5532 5532 5533 5534 5535 5535 5537 5537 5537 5538 5539 5540 5542 5543
5553 5552 5550 5549 5548 5545 5544 5546 5543 5541 5540 5539 5537 5539 5537 5535 5533 5531 5530 5528 5527 5525 5524 5523 5521 5520 5520 5519 5519 5520 5520 5520 5521 5522 5522 5523 5523 5524 5524 5525 5526 5527 5528 5530
5545 5543 5540 5539 5538 5535 5539 5536 5534 5531 5531 5530 5529 5528 5526 5525 5523 5521 5519 5518 5516 5515 5513 5512 5510 5510 5509 5508 5508 5508 5508 5508 5509 5509 5510 5510 5510 5511 5511 5512 5513 5514 5515 5517
5536 5534 5532 5529 5526 5525 5529 5527 5524 5522 5522 5521 5519 5518 5516 5515 5513 5512 5509 5507 5506 5505 5503 5501 5500 5499 5498 5497 5496 5496 5496 5496 5497 5497 5497 5498 5497 5498 5498 5499 5500 5501 5502 5504
5527 5525 5524 5520 5517 5516 5520 5517 5514 5512 5511 5511 5508 5507 5506 5504 5503 5503 5499 5497 5495 5494 5492 5490 5489 5488 5487 5486 5485 5484 5484 5485 5485 5485 5485 5484 5485 5485 5485 5486 5487 5488 5489 5491
5518 5516 5514 5511 5508 5508 5510 5507 5504 5503 5503 5500 5498 5496 5495 5493 5492 5491 5488 5486 5485 5483 5481 5480 5478 5477 5476 5474 5474 5473 5473 5473 5473 5472 5472 5472 5472 5472 5473 5474 5474 5475 5476 5478
5509 5506 5505 5502 5499 5502 5500 5497 5495 5493 5491 5489 5487 5486 5484 5482 5481 5479 5477 5475 5474 5472 5471 5469 5468 5466 5465 5464 5463 5462 5462 5462 5461 5460 5460 5460 5460 5460 5460 5461 5461 5462 5463 5464
5499 5498 5495 5494 5494 5492 5489 5487 5485 5483 5481 5479 5477 5476 5474 5472 5470 5468 5466 5465 5463 5462 5460 5459 5457 5456 5455 5453 5452 5451 5451 5450 5449 5449 5448 5448 5448 5448 5448 5448 5448 5449 5450 5451
5489 5487 5485 5484 5483 5482 5479 5477 5474 5472 5470 5468 5466 5465 5463 5461 5459 5457 5456 5454 5453 5451 5450 5448 5447 5446 5444 5443 5442 5441 5440 5439 5438 5437 5437 5436 5436 5435 5435 5435 5435 5436 5437 5438
5479 5477 5474 5473 5473 5471 5469 5467 5465 5462 5460 5458 5456 5454 5452 5450 5449 5447 5445 5444 5442 5441 5440 5438 5437 5436 5434 5433 5431 5430 5428 5427 5427 5426 5425 5424 5423 5423 5423 5422 5422 5423 5424 5425
5469 5466 5464 5463 5462 5460 5459 5457 5454 5452 5450 5448 5446 5444 5442 5440 5438 5436 5435 5433 5432 5431 5429 5428 5427 5425 5424 5423 5421 5420 5418 5417 5415 5414 5413 5412 5411 5410 5410 5409 5409 5409 5411 5412
Wind_Speed
23 24 25 25 26 27 28 28 28 28 29 30 31 31 31 33 33 34 34 34 35 35 35 36 37 39 40 41 42 42 43 43 43 43 42 42 42 41 41 41 40 40 40 40
23 24 24 25 26 27 27 27 28 29 30 31 31 31 31 33 33 33 34 34 34 35 36 37 37 38 40 40 41 43 43 43 43 43 44 43 43 43 42 43 42 42 42 42
22 23 24 25 26 27 27 27 28 30 30 32 33 33 32 32 34 33 34 34 34 35 36 37 38 39 40 41 41 43 44 44 44 44 44 44 44 44 43 43 44 43 43 44
23 23 23 24 25 26 27 27 29 30 31 32 33 34 32 31 32 33 33 34 34 34 36 36 37 39 41 42 43 44 44 45 45 45 45 46 45 44 44 45 45 44 44 45
23 23 24 24 24 26 27 27 28 30 32 33 33 35 33 32 32 32 33 34 35 35 35 36 37 38 40 43 44 45 45 46 47 46 47 47 47 46 44 45 46 46 46 45
23 24 24 24 25 26 27 28 29 31 32 33 32 34 34 33 32 32 32 33 34 35 35 36 37 38 40 42 43 45 46 46 47 47 47 48 48 48 47 46 46 46 47 48
22 24 24 25 25 26 27 28 30 31 32 32 30 32 33 32 32 32 33 33 33 34 35 36 37 39 40 41 43 44 45 46 47 48 47 48 49 49 48 48 47 48 48 48
23 23 24 25 26 27 27 28 30 31 32 32 32 32 31 31 32 32 33 34 34 36 37 37 38 38 40 41 43 44 45 46 47 48 48 49 49 49 49 49 49 49 48 48
24 25 25 26 26 27 28 29 30 31 32 33 34 33 31 30 32 33 34 35 35 37 38 38 38 38 40 42 43 44 45 46 47 48 49 49 50 50 50 51 50 49 49 49
25 26 26 26 27 27 28 29 29 30 31 33 33 33 31 31 32 33 34 34 35 37 38 38 39 39 40 41 43 44 44 44 46 47 48 49 49 49 50 50 50 50 50 50
25 26 27 27 27 27 27 28 29 31 32 34 34 32 31 31 32 33 34 36 37 37 38 38 38 40 40 41 42 44 44 45 46 47 49 49 49 50 50 50 51 51 51 51
25 26 26 26 26 27 28 29 30 31 32 34 35 34 32 32 33 33 34 35 36 37 38 38 38 39 40 41 41 43 43 44 45 46 47 48 48 50 50 50 51 51 50 51
27 27 27 26 27 27 28 28 30 32 32 33 34 33 32 33 33 33 34 35 35 36 37 38 38 38 39 40 40 41 42 43 44 45 46 47 47 48 49 49 50 50 51 50
28 28 28 27 27 28 29 28 29 31 32 32 32 32 31 32 33 33 33 34 35 36 36 37 37 38 39 39 40 41 42 42 43 44 45 46 47 48 49 49 49 50 50 50
30 30 29 29 29 30 31 29 29 31 32 33 31 31 30 32 33 34 34 34 35 36 36 36 36 37 38 39 39 40 41 42 43 44 44 45 46 47 48 49 48 49 50 50
31 31 30 30 30 31 32 31 32 32 32 32 32 31 30 33 34 34 34 34 34 35 36 36 36 37 38 39 39 40 40 41 42 43 44 45 45 46 46 48 48 48 49 50
30 31 31 31 31 32 32 31 33 33 32 32 32 31 31 32 33 34 35 35 35 35 35 35 36 36 36 38 39 40 41 41 41 42 43 43 43 44 45 46 47 47 48 48
31 31 31 32 31 32 30 29 31 33 33 33 33 32 32 32 33 34 34 36 36 35 35 35 35 36 36 37 38 39 41 41 41 42 43 43 43 43 44 44 45 46 47 47
31 31 32 32 33 33 29 30 32 34 34 34 34 33 34 34 35 35 35 35 35 35 35 35 35 36 37 37 37 39 40 40 40 41 43 43 43 43 43 43 44 45 46 46
30 31 31 32 34 34 31 31 32 34 34 33 34 34 35 35 35 35 37 37 36 36 35 35 36 36 37 38 38 38 39 39 39 40 41 42 43 43 42 42 43 44 45 45
30 31 31 32 34 34 32 32 33 33 33 33 34 35 35 35 36 36 36 37 37 36 36 36 36 36 36 36 37 38 39 39 40 40 40 40 41 41 41 41 42 43 44 45
32 31 31 32 33 32 31 32 32 33 33 34 34 35 35 35 35 35 35 36 36 36 35 35 35 35 35 35 36 36 37 38 39 39 39 40 40 40 40 41 42 42 43 44
32 32 32 33 32 31 31 32 33 33 34 34 34 35 35 35 35 35 35 35 34 34 34 34 34 34 35 35 35 35 36 37 37 37 38 39 40 40 40 40 41 42 42 42
33 33 33 33 33 32 32 32 33 34 35 35 35 36 36 35 34 33 33 33 33 34 34 33 32 32 32 33 34 35 36 37 37 38 38 38 39 39 40 40 41 42 42 42
33 33 34 33 33 33 33 33 33 34 35 35 35 35 35 34 34 33 33 33 33 33 33 33 32 32 32 32 33 34 35 36 37 37 38 38 39 39 39 40 41 41 41 41
32 33 34 34 33 34 33 33 34 34 35 34 34 34 33 33 33 33 33 33 33 34 33 33 32 32 32 32 32 33 34 34 35 36 37 37 38 38 38 38 39 40 41 42
Wind_Direction
264 262 261 262 261 260 260 261 260 258 258 256 254 253 252 252 251 250 249 251 252 252 251 249 248 248 248 248 246 247 248 247 248 250 252 252 251 252 252 252 254 255 255 257
264 264 265 264 263 263 262 263 261 258 257 257 256 253 252 252 252 253 251 251 251 252 251 250 249 249 249 249 248 247 247 248 249 250 251 251 251 251 252 252 252 253 255 256
267 267 267 266 265 265 264 263 262 260 258 259 258 256 254 254 255 255 254 252 251 253 253 252 251 250 251 251 250 248 249 249 250 250 250 251 251 251 252 252 253 254 254 255
267 267 268 268 267 267 264 264 262 261 260 260 260 260 255 256 257 257 256 254 253 254 254 254 253 252 251 251 251 249 249 250 250 250 250 251 252 253 253 253 254 255 255 255
271 268 268 268 268 268 267 265 263 261 261 260 260 261 257 256 258 258 258 256 257 256 256 255 254 254 253 253 253 251 250 250 250 250 250 251 251 252 253 254 254 254 255 255
273 271 269 270 270 269 267 266 264 263 264 263 262 262 260 258 258 259 258 258 258 257 257 256 255 255 255 254 254 252 250 251 251 252 252 252 252 252 253 255 255 254 255 255
275 274 272 270 270 269 266 265 265 267 266 265 265 263 263 262 261 261 260 259 259 258 257 256 257 257 257 255 255 253 251 251 251 251 252 253 253 253 253 255 255 255 255 255
276 276 275 272 271 270 266 263 264 267 269 267 265 264 264 263 263 263 263 262 261 260 259 258 258 259 259 258 256 254 251 251 251 251 251 253 254 254 254 255 256 255 255 255
278 277 276 273 271 268 266 263 264 267 269 268 266 266 266 266 266 265 265 264 264 263 263 263 261 261 262 260 258 255 253 252 252 252 252 252 253 254 255 255 256 255 255 256
279 277 276 275 271 268 267 265 263 266 269 269 268 269 271 271 270 270 270 269 268 267 265 265 264 262 263 263 260 257 256 255 254 253 252 253 254 254 255 256 256 256 255 255
281 279 276 274 272 270 266 264 263 265 267 270 270 271 273 275 276 275 273 271 269 268 266 266 266 264 264 264 262 258 257 257 257 256 254 254 255 256 256 256 256 256 255 256
285 283 280 276 274 270 267 264 263 267 270 270 271 272 273 274 274 274 274 273 271 269 268 267 267 265 264 264 262 259 257 258 258 257 256 255 256 257 257 257 257 256 256 256
284 285 283 279 275 270 269 267 266 269 271 269 270 273 274 275 275 275 275 274 272 272 271 269 268 266 264 264 262 261 258 258 258 257 257 256 257 257 258 258 257 256 256 255
282 282 282 281 279 275 271 269 269 271 272 270 272 274 273 274 275 275 275 275 274 272 272 271 269 266 264 264 263 261 259 259 258 258 258 258 258 259 259 258 257 256 254 254
280 281 281 280 278 276 272 270 270 272 273 273 275 274 273 274 275 275 274 275 276 275 273 272 271 269 266 265 264 262 260 259 259 259 259 259 258 260 260 259 258 256 255 255
279 279 279 278 277 276 273 271 271 271 273 274 275 275 276 276 276 275 275 276 276 276 275 273 272 271 268 265 264 262 261 260 260 260 260 259 259 261 260 259 259 257 256 256
279 279 279 278 278 277 276 275 273 272 274 275 276 279 279 278 278 277 277 277 277 276 277 276 274 274 270 267 265 263 262 262 261 260 260 260 262 261 260 259 258 257 256 256
279 280 280 280 279 278 280 278 274 273 273 276 278 278 277 278 278 279 278 277 277 277 277 277 275 273 272 270 268 265 264 263 262 261 261 261 262 262 260 259 258 257 256 256
280 281 282 282 281 282 282 280 278 276 275 276 277 278 279 278 279 279 278 277 277 277 277 276 274 274 273 272 270 267 265 264 264 262 262 261 262 262 261 259 258 257 256 256
281 281 281 282 282 284 285 283 281 280 279 278 278 279 280 280 279 278 278 277 277 277 277 275 274 275 274 272 271 268 266 265 265 264 263 263 262 262 262 260 260 258 257 257
282 281 280 281 282 284 285 283 282 281 281 280 280 280 281 281 280 280 278 278 277 277 276 275 275 275 274 272 271 269 267 266 266 265 265 264 264 263 262 261 260 259 258 257
281 281 281 280 281 285 285 283 282 282 282 281 281 281 282 282 281 280 279 278 278 277 276 275 275 275 274 273 272 271 269 267 266 265 265 265 264 263 262 262 261 261 260 259
280 280 280 280 282 283 283 282 283 282 282 282 282 281 282 282 281 280 278 277 277 277 276 276 276 276 274 273 273 272 270 268 267 267 267 266 264 264 263 263 263 262 261 260
280 280 280 281 282 281 281 282 283 283 283 283 282 281 281 281 282 280 278 277 277 277 277 276 276 277 277 276 275 274 272 271 269 269 268 268 266 265 264 264 263 262 261 261
279 279 280 280 280 279 278 279 281 282 282 282 282 280 280 280 280 279 277 277 277 278 278 277 276 276 277 277 276 275 273 271 271 270 270 269 268 267 266 265 263 261 261 260
278 278 279 280 280 279 278 278 280 281 282 282 281 280 280 279 279 279 277 278 278 278 278 277 277 277 277 277 278 276 275 274 272 272 271 271 271 269 267 266 265 264 262 261